(°C)
11°
10°
10°
11°
13°
(°C)
11°
NNE
NNE
NNE
NNE
NNE
NE
NE
(km/h)
5-10
5-9
5-9
5-10
5-10
5-11
6-12
(mm)
0
0
0
0
0
0
0
(%)
1
1
1
0
0
0
0

Wysokość słońca

/ -44.1°
sun-icon
UV 4
07:01
17:35
Sierp ubywający (307°)
02:50
15:00

METAR dla Tampa (KTPF)

Czas Warunki Temperatura/
Punkt rosy
Wiatr Widzialność Pogoda Chmury Ciśn. atm. Zmień Surowy
VFR 11°C / 8°C 40º 4kt >10km - Overcast 11000ft - KTPF 300815Z AUTO 04004KT 10SM OVC110 11/08 A3012 RMK AO2
VFR 11°C / 8°C 30º 3kt >10km - Overcast 11000ft - KTPF 300755Z AUTO 03003KT 10SM OVC110 11/08 A3012 RMK AO2
VFR 11°C / 8°C 40º 4kt >10km - Overcast 11000ft - KTPF 300735Z AUTO 04004KT 10SM OVC110 11/08 A3012 RMK AO2
VFR 11°C / 8°C 40º 4kt >10km - Overcast 11000ft - KTPF 300715Z AUTO 04004KT 10SM OVC110 11/08 A3012 RMK AO2
VFR 11°C / 7°C 40º 4kt >10km - Overcast 10000ft - KTPF 300655Z AUTO 04004KT 10SM OVC100 11/07 A3012 RMK AO2
VFR 11°C / 7°C 40º 5kt >10km - Overcast 10000ft - KTPF 300635Z AUTO 04005KT 10SM OVC100 11/07 A3012 RMK AO2
VFR 12°C / 7°C 40º 6kt >10km - Overcast 10000ft - KTPF 300615Z AUTO 04006KT 10SM OVC100 12/07 A3013 RMK AO2
VFR 12°C / 8°C 30º 4kt >10km - Overcast 11000ft - KTPF 300555Z AUTO 03004KT 10SM OVC110 12/08 A3013 RMK AO2
VFR 13°C / 7°C 30º 3kt >10km - Broken Clouds 10000ft
Overcast 12000ft
- KTPF 300535Z AUTO 03003KT 10SM BKN100 OVC120 13/07 A3013 RMK AO2
VFR 13°C / 7°C 10º 3kt >10km - Overcast 10000ft - KTPF 300515Z AUTO 01003KT 10SM OVC100 13/07 A3013 RMK AO2
VFR 13°C / 8°C 20º 4kt >10km - Overcast 10000ft - KTPF 300455Z AUTO 02004KT 10SM OVC100 13/08 A3013 RMK AO2
VFR 14°C / 8°C 10º 6kt >10km - Broken Clouds 10000ft
Overcast 12000ft
- KTPF 300435Z AUTO 01006KT 10SM BKN100 OVC120 14/08 A3013 RMK AO2
VFR 13°C / 9°C 10º 3kt >10km - Broken Clouds 10000ft
Overcast 12000ft
- KTPF 300415Z AUTO 01003KT 10SM BKN100 OVC120 13/09 A3014 RMK AO2
VFR 14°C / 9°C variable 0kt >10km - Overcast 10000ft - KTPF 300355Z AUTO 00000KT 10SM OVC100 14/09 A3014 RMK AO2
VFR 14°C / 10°C variable 0kt >10km - Overcast 10000ft - KTPF 300335Z AUTO 00000KT 10SM OVC100 14/10 A3014 RMK AO2
VFR 14°C / 10°C 340º 3kt >10km - Broken Clouds 10000ft
Overcast 12000ft
- KTPF 300315Z AUTO 34003KT 10SM BKN100 OVC120 14/10 A3014 RMK AO2
VFR 14°C / 10°C 350º 4kt >10km - Overcast 10000ft - KTPF 300255Z AUTO 35004KT 10SM OVC100 14/10 A3014 RMK AO2
VFR 14°C / 10°C 340º 3kt >10km - Overcast 11000ft - KTPF 300235Z AUTO 34003KT 10SM OVC110 14/10 A3013 RMK AO2
VFR 14°C / 10°C 350º 3kt >10km - Overcast 11000ft - KTPF 300215Z AUTO 35003KT 10SM OVC110 14/10 A3013 RMK AO2
VFR 14°C / 9°C variable 0kt >10km - Broken Clouds 10000ft
Overcast 12000ft
- KTPF 300155Z AUTO 00000KT 10SM BKN100 OVC120 14/09 A3012 RMK AO2
VFR 15°C / 8°C variable 0kt >10km - Broken Clouds 10000ft
Overcast 12000ft
- KTPF 300135Z AUTO 00000KT 10SM BKN100 OVC120 15/08 A3011 RMK AO2
VFR 15°C / 8°C variable 0kt >10km - Broken Clouds 10000ft
Overcast 12000ft
- KTPF 300115Z AUTO 00000KT 10SM BKN100 OVC120 15/08 A3011 RMK AO2
VFR 15°C / 8°C variable 0kt >10km - Overcast 11000ft - KTPF 300055Z AUTO 00000KT 10SM OVC110 15/08 A3010 RMK AO2
VFR 15°C / 8°C variable 0kt >10km - Overcast 10000ft - KTPF 300035Z AUTO 00000KT 10SM OVC100 15/08 A3009 RMK AO2

VFR

11°C / 8°C

[Więcej]
Wiatr 40º 4kt
Widzialność >10km
Pogoda -
Chmury Overcast 11000ft
Ciśn. atm.
Zmień -
Surowy KTPF 300815Z AUTO 04004KT 10SM OVC110 11/08 A3012 RMK AO2

VFR

11°C / 8°C

[Więcej]
Wiatr 30º 3kt
Widzialność >10km
Pogoda -
Chmury Overcast 11000ft
Ciśn. atm.
Zmień -
Surowy KTPF 300755Z AUTO 03003KT 10SM OVC110 11/08 A3012 RMK AO2

VFR

11°C / 8°C

[Więcej]
Wiatr 40º 4kt
Widzialność >10km
Pogoda -
Chmury Overcast 11000ft
Ciśn. atm.
Zmień -
Surowy KTPF 300735Z AUTO 04004KT 10SM OVC110 11/08 A3012 RMK AO2

VFR

11°C / 8°C

[Więcej]
Wiatr 40º 4kt
Widzialność >10km
Pogoda -
Chmury Overcast 11000ft
Ciśn. atm.
Zmień -
Surowy KTPF 300715Z AUTO 04004KT 10SM OVC110 11/08 A3012 RMK AO2

VFR

11°C / 7°C

[Więcej]
Wiatr 40º 4kt
Widzialność >10km
Pogoda -
Chmury Overcast 10000ft
Ciśn. atm.
Zmień -
Surowy KTPF 300655Z AUTO 04004KT 10SM OVC100 11/07 A3012 RMK AO2

VFR

11°C / 7°C

[Więcej]
Wiatr 40º 5kt
Widzialność >10km
Pogoda -
Chmury Overcast 10000ft
Ciśn. atm.
Zmień -
Surowy KTPF 300635Z AUTO 04005KT 10SM OVC100 11/07 A3012 RMK AO2

VFR

12°C / 7°C

[Więcej]
Wiatr 40º 6kt
Widzialność >10km
Pogoda -
Chmury Overcast 10000ft
Ciśn. atm.
Zmień -
Surowy KTPF 300615Z AUTO 04006KT 10SM OVC100 12/07 A3013 RMK AO2

VFR

12°C / 8°C

[Więcej]
Wiatr 30º 4kt
Widzialność >10km
Pogoda -
Chmury Overcast 11000ft
Ciśn. atm.
Zmień -
Surowy KTPF 300555Z AUTO 03004KT 10SM OVC110 12/08 A3013 RMK AO2

VFR

13°C / 7°C

[Więcej]
Wiatr 30º 3kt
Widzialność >10km
Pogoda -
Chmury Broken Clouds 10000ft
Overcast 12000ft
Ciśn. atm.
Zmień -
Surowy KTPF 300535Z AUTO 03003KT 10SM BKN100 OVC120 13/07 A3013 RMK AO2

VFR

13°C / 7°C

[Więcej]
Wiatr 10º 3kt
Widzialność >10km
Pogoda -
Chmury Overcast 10000ft
Ciśn. atm.
Zmień -
Surowy KTPF 300515Z AUTO 01003KT 10SM OVC100 13/07 A3013 RMK AO2

VFR

13°C / 8°C

[Więcej]
Wiatr 20º 4kt
Widzialność >10km
Pogoda -
Chmury Overcast 10000ft
Ciśn. atm.
Zmień -
Surowy KTPF 300455Z AUTO 02004KT 10SM OVC100 13/08 A3013 RMK AO2

VFR

14°C / 8°C

[Więcej]
Wiatr 10º 6kt
Widzialność >10km
Pogoda -
Chmury Broken Clouds 10000ft
Overcast 12000ft
Ciśn. atm.
Zmień -
Surowy KTPF 300435Z AUTO 01006KT 10SM BKN100 OVC120 14/08 A3013 RMK AO2

VFR

13°C / 9°C

[Więcej]
Wiatr 10º 3kt
Widzialność >10km
Pogoda -
Chmury Broken Clouds 10000ft
Overcast 12000ft
Ciśn. atm.
Zmień -
Surowy KTPF 300415Z AUTO 01003KT 10SM BKN100 OVC120 13/09 A3014 RMK AO2

VFR

14°C / 9°C

[Więcej]
Wiatr variable 0kt
Widzialność >10km
Pogoda -
Chmury Overcast 10000ft
Ciśn. atm.
Zmień -
Surowy KTPF 300355Z AUTO 00000KT 10SM OVC100 14/09 A3014 RMK AO2

VFR

14°C / 10°C

[Więcej]
Wiatr variable 0kt
Widzialność >10km
Pogoda -
Chmury Overcast 10000ft
Ciśn. atm.
Zmień -
Surowy KTPF 300335Z AUTO 00000KT 10SM OVC100 14/10 A3014 RMK AO2

VFR

14°C / 10°C

[Więcej]
Wiatr 340º 3kt
Widzialność >10km
Pogoda -
Chmury Broken Clouds 10000ft
Overcast 12000ft
Ciśn. atm.
Zmień -
Surowy KTPF 300315Z AUTO 34003KT 10SM BKN100 OVC120 14/10 A3014 RMK AO2

VFR

14°C / 10°C

[Więcej]
Wiatr 350º 4kt
Widzialność >10km
Pogoda -
Chmury Overcast 10000ft
Ciśn. atm.
Zmień -
Surowy KTPF 300255Z AUTO 35004KT 10SM OVC100 14/10 A3014 RMK AO2

VFR

14°C / 10°C

[Więcej]
Wiatr 340º 3kt
Widzialność >10km
Pogoda -
Chmury Overcast 11000ft
Ciśn. atm.
Zmień -
Surowy KTPF 300235Z AUTO 34003KT 10SM OVC110 14/10 A3013 RMK AO2

VFR

14°C / 10°C

[Więcej]
Wiatr 350º 3kt
Widzialność >10km
Pogoda -
Chmury Overcast 11000ft
Ciśn. atm.
Zmień -
Surowy KTPF 300215Z AUTO 35003KT 10SM OVC110 14/10 A3013 RMK AO2

VFR

14°C / 9°C

[Więcej]
Wiatr variable 0kt
Widzialność >10km
Pogoda -
Chmury Broken Clouds 10000ft
Overcast 12000ft
Ciśn. atm.
Zmień -
Surowy KTPF 300155Z AUTO 00000KT 10SM BKN100 OVC120 14/09 A3012 RMK AO2

VFR

15°C / 8°C

[Więcej]
Wiatr variable 0kt
Widzialność >10km
Pogoda -
Chmury Broken Clouds 10000ft
Overcast 12000ft
Ciśn. atm.
Zmień -
Surowy KTPF 300135Z AUTO 00000KT 10SM BKN100 OVC120 15/08 A3011 RMK AO2

VFR

15°C / 8°C

[Więcej]
Wiatr variable 0kt
Widzialność >10km
Pogoda -
Chmury Broken Clouds 10000ft
Overcast 12000ft
Ciśn. atm.
Zmień -
Surowy KTPF 300115Z AUTO 00000KT 10SM BKN100 OVC120 15/08 A3011 RMK AO2

VFR

15°C / 8°C

[Więcej]
Wiatr variable 0kt
Widzialność >10km
Pogoda -
Chmury Overcast 11000ft
Ciśn. atm.
Zmień -
Surowy KTPF 300055Z AUTO 00000KT 10SM OVC110 15/08 A3010 RMK AO2

VFR

15°C / 8°C

[Więcej]
Wiatr variable 0kt
Widzialność >10km
Pogoda -
Chmury Overcast 10000ft
Ciśn. atm.
Zmień -
Surowy KTPF 300035Z AUTO 00000KT 10SM OVC100 15/08 A3009 RMK AO2

Aktualne zdjęcia satelitarne dla Tampa, Stany Zjednoczone

Wskaźnik lokalizacji znajduje się na Tampa. [Więcej]

Obraz satelitarny w czasie rzeczywistym łączy światło widzialne w ciągu dnia z promieniowaniem podczerwonym w nocy. W nocy obraz nie jest ciemny, ponieważ promieniowanie podczerwone może wykrywać różnice temperatur. Niestety niskie chmury i mgłę trudno odróżnić od temperatury gruntu, przez co mogą być prawie niewidoczne w nocy. Zdjęcia satelitarne Meteosat dla Europy są aktualizowane w czasie rzeczywistym co 5 minut. Obrazy GOES-16/GOES-17 (Ameryka Północna i Południowa) oraz Himawari (Azja) są aktualizowane co 10 minut.

Radar i prognoza opadów na teraz dla Tampa

Mżawka
Lekki
Umiarkowane
Ulewne
Bardzo ciężkie
Zdrowaśka

Wskaźnik lokalizacji jest umieszczony na Tampa. Animacja przedstawia radar opadów dla ostatniej godziny, jak również 1h prognozę pogody. Mżawka i lekkie opady mogą być niewidoczne na radarze. Intensywność opadów jest oznaczona kolorami od jasnoniebieskiego do ciemnofioletowego.